Weather in Shalskiy

Russia / Republic of Karelia     61°48′13″N   35°59′13″E
temp.,
°C
wind,
m/s
gust,
m/s
humid.,
%
clouds,
%
prec.,
mm/h
press.,
hPa
HPBL,
m
5 august, thu
thu500:00+16w4665100 0.0 1014392
03:00+15w3366100 0.1 1015260
06:00+15w346983 0.5 1015201
09:00+16w446489 0.6 1016500
12:00+16wsw336087 0.0 1017528
15:00+17wsw22516 0.0 1018942
18:00+18nw114588 0.0 1017733
21:00+15nne336076 0.0 101768
6 august, fri
fri600:00+13ene346866 0.0 101884
03:00+13ene4665100 0.0 1018146
06:00+13e5969100 0.0 1018251
09:00+16e3558100 0.0 1018573
12:00+19ene3548100 0.0 10181284
15:00+18ene0454100 0.0 1018853
18:00+18ese3556100 0.0 1018704
21:00+15e59687 0.0 1018599
7 august, sat
sat700:00+14ene5117492 0.0 1018602
03:00+14e6127867 0.0 1018633
06:00+14e71371100 0.0 1018747
09:00+17e8136367 0.0 1017879
12:00+20e71055100 0.0 1016903
15:00+20e71060100 0.0 1015829
18:00+18e81366100 0.1 1015871
21:00+17e81470100 0.1 1015892
8 august, sun
sun800:00+15e81691100 0.9 1014785
03:00+15e81692100 1.3 1013806
06:00+15e81592100 0.8 1012811
09:00+14e81493100 2.1 1012673
12:00+14e71291100 0.6 1012611
15:00+14e71194100 1.6 1013528
18:00+14e61096100 0.9 1013406
21:00+14ene5898100 0.9 1014293
9 august, mon
mon900:00+14ene359898 0.2 1014203
03:00+14e239798 0.3 1015173
06:00+14ene239692 0.1 1015137
09:00+15ene129284 0.1 1016238
12:00+18sse1183100 0.0 1017411
15:00+18w218246 0.1 1017433
18:00+19wnw017756 0.0 1017487
21:00+17ene238439 0.0 101754